Content
SEND FEEDBACK

Daily
Averages
Monthly
Summary
United States of America

SHELBYVILLE, INDIANA


Home > North America > United States > Indiana
Elevation: 775 feet     Latitude: 39 31N     Longitude: 085 46W

WEATHER
 
SELECT A DAY
Number of Records: 175,983;   Date Range: 10/15/98 - 10/18/14
 
SHARE

PRINT THIS DATA

[ ← Previous Day ]
WEATHER ALMANAC - JANUARY 31, 2013
[ Next Day → ]
[ °C ]   °F
Weather ElementAverageHighLow
Temperature24.5 °F30 °F (12:53 pm)12.2 °F (11:38 pm)
Dewpoint16.5 °F23 °F (6:15 pm)3.2 °F (11:38 pm)
Humidity72 %86 % (6:08 am)59 % (4:53 pm)
Barometer29.88 in30.12 in (11:53 pm)29.69 in (1:53 am)
Wind Speed19.4 mph29.9 mph (1:53 am)
Wind Gust40.3 mph (3:43 am)
Weather ElementAverage
Visibility5.7 mi
Wind DirectionWNW (276.7 °)

Weather ElementTotal
Precipitation---
Heating Degree Days43.9 (Base 65)
Averaged from 48 records on January 31, 2013
WEATHER CONDITIONS BREAKOUT
WIND DIRECTION BREAKOUT
WEATHER BY HOUR - JANUARY 31, 2013
[ °C ]   °F
Local TimeTemperatureDewpointHumidityBarometerVisibilityWind DirectionWind SpeedGust SpeedPrecipitationEventsConditions
1:53 AM27.0 °F19.0 °F72 %29.69 in8.0 miWest (270°)29.9 mph38.0 mph0.00 inSnowLight Snow
2:46 AM26.6 °F15.8 °F64 %29.71 in9.0 miWest (280°)25.3 mph33.4 mph0.00 inSnowLight Snow
2:53 AM27.0 °F18.0 °F69 %29.72 in8.0 miWest (280°)17.3 mph33.4 mph0.00 inSnowLight Snow
3:12 AM26.6 °F17.6 °F69 %29.72 in8.0 miWest (270°)19.6 mph29.9 mph0.00 inSnowLight Snow
3:43 AM26.6 °F15.8 °F64 %29.73 in9.0 miWest (270°)28.8 mph40.3 mph0.00 inSnowLight Snow
3:53 AM26.1 °F17.1 °F69 %29.75 in6.0 miWest (280°)23.0 mph31.1 mph0.00 inSnowLight Snow
4:53 AM26.1 °F15.1 °F63 %29.77 in10.0 miWest (270°)18.4 mph28.8 mph0.00 inOvercast
5:46 AM24.8 °F19.4 °F80 %29.76 in1.8 miWest (270°)21.9 mph38.0 mph0.00 inSnowLight Snow
5:50 AM24.8 °F19.4 °F80 %29.77 in0.8 miWest (280°)20.7 mph29.9 mph0.00 inSnowLight Snow
5:53 AM24.1 °F19.9 °F84 %29.79 in0.5 miWest (280°)19.6 mph29.9 mph0.00 inFog-SnowSnow
6:08 AM23.0 °F19.4 °F86 %29.78 in0.8 miWest (270°)21.9 mph28.8 mph0.00 inSnowLight Snow
6:16 AM24.8 °F17.6 °F74 %29.79 in2.5 miWest (270°)28.8 mph36.8 mph0.00 inSnowLight Snow
6:21 AM23.0 °F12.2 °F63 %29.79 in9.0 miWest (260°)28.8 mph36.8 mph0.00 inSnowLight Snow
6:31 AM23.0 °F12.2 °F63 %29.79 in9.0 miWest (260°)19.6 mph34.5 mph0.00 inSnowLight Snow
6:53 AM21.9 °F12.0 °F66 %29.84 in10.0 miWest (270°)21.9 mph34.5 mph0.00 inOvercast
7:53 AM23.0 °F14.0 °F68 %29.86 in10.0 miWest (270°)18.4 mph25.3 mphOvercast
8:53 AM24.1 °F15.1 °F69 %29.88 in10.0 miWSW (250°)13.8 mphOvercast
9:53 AM25.0 °F15.1 °F66 %29.89 in10.0 miWSW (240°)19.6 mph0.00 inOvercast
10:53 AM27.0 °F17.1 °F66 %29.90 in10.0 miWSW (240°)19.6 mph27.6 mphOvercast
11:53 AM28.0 °F18.0 °F66 %29.91 in9.0 miWest (260°)19.6 mph0.00 inOvercast
12:53 PM30.0 °F18.0 °F61 %29.91 in10.0 miWSW (240°)20.7 mph29.9 mphOvercast
1:53 PM28.9 °F19.0 °F67 %29.90 in10.0 miWest (260°)21.9 mph29.9 mph0.00 inOvercast
2:51 PM28.4 °F21.2 °F74 %29.86 in2.0 miWest (280°)17.3 mph28.8 mph0.00 inSnowLight Snow
2:53 PM28.9 °F21.0 °F72 %29.89 in2.0 miWest (280°)16.1 mph25.3 mph0.00 inSnowLight Snow
3:04 PM28.4 °F21.2 °F74 %29.86 in5.0 miWest (280°)13.8 mph0.00 inSnowLight Snow
3:12 PM28.4 °F21.2 °F74 %29.86 in4.0 miWSW (250°)19.6 mph25.3 mph0.00 inSnowLight Snow
3:53 PM30.0 °F21.0 °F69 %29.89 in8.0 miWest (260°)12.7 mph0.00 inSnowLight Snow
4:53 PM30.0 °F17.1 °F59 %29.88 in10.0 miWest (260°)17.3 mph0.00 inOvercast
5:33 PM28.4 °F21.2 °F74 %29.87 in1.8 miWNW (290°)11.5 mph0.00 inSnowLight Snow
5:51 PM26.6 °F21.2 °F80 %29.88 in0.5 miWest (270°)13.8 mph25.3 mph0.00 inSnowSnow
5:53 PM27.0 °F21.9 °F81 %29.92 in0.5 miWest (280°)13.8 mph25.3 mph0.00 inSnowSnow
6:00 PM26.6 °F21.2 °F80 %29.89 in0.5 miWest (280°)13.8 mph0.00 inFog-SnowSnow
6:15 PM26.6 °F23.0 °F86 %29.89 in1.0 miWest (260°)12.7 mph0.00 inSnowLight Snow
6:23 PM26.6 °F23.0 °F86 %29.89 in0.8 miWest (260°)10.4 mph0.00 inSnowLight Snow
6:41 PM26.6 °F21.2 °F80 %29.90 in1.0 miWNW (290°)18.4 mph24.2 mph0.00 inSnowLight Snow
6:48 PM26.6 °F21.2 °F80 %29.91 in1.5 miWNW (290°)18.4 mph0.00 inSnowLight Snow
6:49 PM25.0 °F21.0 °F85 %29.94 in1.5 miWNW (290°)17.3 mph0.00 inSnowLight Snow
6:58 PM24.8 °F19.4 °F80 %29.91 in3.0 miWest (280°)18.4 mph27.6 mph0.00 inSnowLight Snow
7:53 PM24.1 °F15.1 °F69 %29.97 in6.0 miWNW (290°)21.9 mph28.8 mph0.00 inSnowLight Snow
8:53 PM19.9 °F10.0 °F65 %29.99 in10.0 miWNW (290°)17.3 mph0.00 inOvercast
9:10 PM19.4 °F12.2 °F74 %29.98 in2.5 miNW (320°)25.3 mph31.1 mph0.00 inSnowLight Snow
9:26 PM17.6 °F10.4 °F73 %29.99 in4.0 miNW (310°)20.7 mph29.9 mph0.00 inSnowLight Snow
9:37 PM17.6 °F10.4 °F73 %30.00 in7.0 miNW (310°)18.4 mph0.00 inSnowLight Snow
9:46 PM17.6 °F8.6 °F68 %30.00 in7.0 miNW (320°)23.0 mph27.6 mph0.00 inSnowLight Snow
9:53 PM17.1 °F9.0 °F71 %30.04 in7.0 miNW (310°)18.4 mph0.00 inSnowLight Snow
10:53 PM15.1 °F5.0 °F64 %30.08 in9.0 miWNW (290°)21.9 mph27.6 mph0.00 inSnowLight Snow
11:38 PM12.2 °F3.2 °F67 %30.07 in10.0 miWNW (300°)21.9 mph29.9 mph0.00 inOvercast
11:53 PM12.9 °F3.9 °F67 %30.12 in7.0 miWNW (300°)19.6 mph28.8 mph0.00 inSnowLight Snow
Hourly data recorded from KGEZ, located miles away from Shelbyville, Indiana







STORIES FROM OUR PARTNERS